Theta_e
306 305 303 302 303 303 303 303 303 302 301 299 299 297 296 296 297 296 296 297 296 296 295 295 293 294 294 293 293 294 293 293 290 292 293 294 294 293 294 294 295 295 294
304 303 300 300 299 298 297 296 296 296 296 296 296 295 294 293 293 293 292 292 292 291 291 291 290 291 290 290 290 290 290 291 289 287 289 290 290 291 291 290 293 294 290
300 300 300 298 298 295 294 294 293 292 292 293 292 291 291 291 290 290 290 290 289 289 288 288 287 287 286 286 287 287 288 288 288 287 286 288 288 288 287 287 287 286 288
297 295 294 293 293 292 291 291 290 290 289 289 289 289 289 289 289 288 288 287 287 287 287 287 286 285 284 284 284 284 285 284 284 284 283 283 284 285 283 282 281 282 283
291 290 289 289 289 288 287 287 287 286 286 286 287 287 287 287 287 286 286 285 285 285 285 285 285 284 286 286 285 284 284 282 282 281 281 281 281 281 280 281 281 282 282
287 287 287 288 287 286 285 285 284 284 284 284 284 284 284 286 287 287 286 284 284 283 282 283 284 283 284 285 286 287 286 283 282 281 280 280 280 280 281 281 281 279 277
284 284 284 284 284 283 283 283 282 282 282 282 282 283 282 284 287 286 286 283 283 282 282 282 282 283 282 282 284 285 284 286 285 283 280 280 279 281 281 280 280 279 278
283 283 282 283 282 282 281 281 281 281 281 280 280 281 282 284 286 286 285 282 282 282 281 281 281 280 281 282 281 281 281 281 281 282 280 280 281 281 280 280 279 279 279
281 281 281 282 281 280 280 279 280 280 280 280 280 280 280 282 285 285 283 282 281 281 281 281 280 280 283 284 280 279 279 279 281 282 282 283 283 283 282 279 276 274 272
280 280 281 281 280 279 279 279 280 280 279 280 280 280 281 281 284 284 282 282 280 280 280 280 282 281 282 282 278 277 276 276 277 277 278 278 279 279 280 276 275 271 272
280 279 279 280 279 279 279 279 278 278 278 278 278 278 279 280 281 283 283 280 280 280 280 279 279 281 280 280 280 277 277 277 276 275 274 275 276 275 274 275 275 273 271
278 278 278 278 279 279 278 278 278 278 277 276 277 277 277 278 280 281 282 281 280 279 278 278 278 279 279 279 277 278 278 276 272 270 270 272 271 271 272 272 273 273 273
277 277 277 277 279 279 278 277 277 277 276 276 277 275 275 277 277 280 281 281 280 279 279 278 278 277 277 276 277 276 273 271 269 265 269 269 270 271 271 270 271 271 271
275 275 275 275 275 275 278 278 277 276 276 276 276 275 274 275 276 277 278 277 278 277 276 274 275 275 275 274 272 272 272 271 269 268 267 268 269 268 267 268 266 267 267
275 274 274 274 273 273 274 273 275 274 276 273 272 274 271 270 274 277 276 274 271 274 267 265 266 268 268 268 268 268 268 268 266 266 265 265 266 266 266 266 265 264 263
272 272 272 271 271 272 271 270 278 278 278 280 280 277 275 278 277 277 277 277 275 274 262 261 263 265 265 265 264 264 264 264 264 265 263 264 263 263 263 264 264 262 262
273 273 272 272 271 270 270 270 267 271 277 278 278 278 278 276 275 276 275 274 272 269 258 260 261 263 263 263 262 262 261 263 263 261 262 262 262 262 262 262 262 262 261
269 270 272 271 271 269 269 269 269 267 266 264 273 274 275 274 274 274 272 271 261 262 258 258 257 259 259 259 259 259 259 259 258 258 259 259 260 261 260 260 260 259 259
270 268 270 270 270 270 270 268 267 267 267 264 261 269 270 272 274 272 271 259 257 256 256 256 256 256 257 256 256 255 255 255 256 255 255 258 259 258 259 259 259 259 259
269 270 270 271 269 269 268 268 266 264 264 263 262 260 259 260 258 259 259 257 256 256 255 255 255 254 254 253 253 252 252 253 253 255 258 257 257 255 258 258 258 258 258
270 269 270 269 269 268 268 267 266 265 264 262 260 261 268 259 258 257 256 256 256 255 255 254 254 253 252 251 251 251 252 256 258 256 257 258 256 257 258 259 259 258 258
271 268 267 268 266 267 266 266 266 266 265 264 261 262 271 258 257 257 259 258 255 254 254 253 252 252 251 251 251 252 254 256 256 253 256 258 258 258 259 258 258 258 257
271 268 266 264 266 266 267 267 267 266 264 262 261 259 257 257 258 259 260 255 254 253 253 252 250 250 250 250 250 253 255 257 257 256 258 258 258 258 258 257 257 257 256
271 269 268 268 267 267 268 267 265 264 262 261 260 259 259 258 259 259 257 253 251 251 250 249 249 251 252 252 252 253 254 257 257 257 256 258 257 257 257 256 257 257 257
269 269 269 269 267 267 266 264 262 262 262 261 260 259 260 260 258 255 253 252 250 248 248 248 247 250 252 253 253 253 254 257 255 257 257 257 256 256 256 256 257 257 257
270 270 269 268 267 265 264 263 262 262 261 261 260 260 259 258 255 253 252 251 249 248 249 249 250 251 252 252 253 256 258 262 262 263 264 263 262 262 261 260 260 262 262
Wind_Speed
12 11 12 11 11 12 10 9 8 9 7 8 6 10 12 8 7 5 6 6 6 5 5 6 6 6 4 4 4 3 3 3 2 3 2 5 5 8 9 6 7 7 6
8 16 18 13 13 12 11 10 9 8 9 10 5 7 12 9 7 7 5 6 6 6 6 6 6 5 5 6 4 5 4 4 3 6 4 4 5 6 5 8 7 8 10
11 10 14 20 16 14 14 12 11 8 9 9 9 7 9 8 7 6 6 5 6 5 5 5 5 6 6 5 4 4 3 5 3 4 5 3 3 4 7 4 6 6 8
8 11 12 12 11 12 11 11 14 11 7 7 9 9 8 7 7 5 5 6 6 6 4 5 6 6 4 5 5 5 5 5 4 4 4 5 4 5 3 7 8 5 8
10 12 12 12 13 12 12 13 11 10 9 7 9 8 7 6 5 4 5 6 6 6 5 4 5 5 7 8 4 4 4 3 4 5 5 5 5 7 8 6 9 8 7
10 12 11 12 12 11 12 11 12 11 10 9 7 8 7 6 9 9 6 5 6 5 4 5 5 6 7 10 12 13 8 4 4 3 3 6 6 7 6 8 10 11 9
8 10 12 11 11 9 11 10 11 7 9 10 8 7 8 7 8 9 8 5 5 5 5 4 3 4 5 5 9 12 10 10 9 5 5 6 10 10 8 11 11 11 11
8 10 9 10 11 10 9 8 11 5 9 8 8 7 6 6 8 8 8 5 5 4 4 6 5 5 6 6 5 5 5 5 5 6 6 7 8 7 6 7 8 8 7
7 8 7 6 9 9 9 8 6 8 7 7 6 7 6 4 10 9 6 5 5 4 3 4 4 3 10 13 4 7 7 5 11 15 15 15 15 16 13 7 7 9 9
7 6 7 7 6 7 7 8 4 7 8 6 7 6 7 5 9 10 6 3 3 3 3 4 7 6 14 14 6 6 7 9 9 10 7 8 10 9 16 10 8 8 9
5 8 7 5 7 6 5 4 6 7 7 5 7 5 5 5 6 7 6 4 2 1 2 1 3 12 14 15 13 7 8 9 10 8 8 7 6 8 7 8 8 8 8
6 8 7 5 4 5 7 5 6 7 6 5 6 5 3 5 5 5 5 6 6 3 4 3 4 15 14 13 9 12 13 10 5 6 6 5 7 8 8 9 10 9 8
5 7 6 7 4 6 6 6 5 5 4 5 5 4 3 2 2 5 4 7 7 3 4 9 13 12 11 7 11 13 7 4 3 2 5 5 6 7 9 7 8 10 11
6 6 5 5 4 4 3 3 4 4 4 3 4 4 3 1 1 1 4 4 7 5 8 5 6 7 9 8 5 7 5 4 4 5 6 6 6 6 6 7 8 9 9
7 6 6 5 6 5 4 3 3 3 3 3 2 4 4 4 2 5 5 3 2 4 4 3 3 2 3 4 3 4 4 4 3 4 4 5 6 7 7 7 7 8 8
6 4 3 3 1 3 4 4 9 7 5 6 6 7 2 9 7 6 3 5 4 4 4 2 2 2 3 3 3 3 2 3 3 4 3 5 6 7 8 8 8 8 9
7 6 4 4 4 4 4 5 5 2 5 7 8 9 9 8 6 5 5 3 3 5 2 1 1 1 1 1 1 1 2 2 3 3 3 6 6 7 9 9 8 8 9
5 7 5 4 4 4 3 3 4 6 5 1 6 7 10 7 6 7 4 4 3 3 2 1 0 1 1 1 2 2 2 3 2 3 3 3 4 6 8 8 8 9 10
5 3 4 4 5 5 5 5 4 5 6 4 2 3 5 6 7 7 6 3 3 1 1 0 1 1 1 2 2 3 2 3 3 2 3 4 4 5 7 7 8 11 12
5 7 6 5 5 4 4 5 4 4 4 4 3 3 2 4 2 1 2 2 2 2 1 1 1 1 2 2 3 2 3 3 3 3 5 5 5 4 7 8 8 10 10
4 4 6 4 5 5 5 6 5 4 4 4 3 4 9 4 3 3 2 1 2 1 0 0 1 2 2 2 2 2 2 5 5 5 5 6 4 6 6 8 9 10 10
5 5 4 5 4 5 4 4 5 5 5 6 4 3 10 3 4 3 3 2 1 2 1 1 2 2 3 2 2 2 3 5 6 4 5 6 7 7 7 8 9 9 10
5 6 4 3 4 6 5 5 5 5 5 6 6 4 3 3 3 3 3 2 1 0 1 1 2 3 3 3 3 3 6 8 7 5 7 8 8 8 8 8 9 9 9
6 7 7 6 5 5 5 6 5 6 7 6 6 5 4 4 4 3 2 1 1 1 2 2 3 4 5 5 4 5 6 8 6 6 8 9 9 10 9 9 10 12 12
5 6 7 7 6 6 6 5 5 6 6 6 5 4 4 4 3 2 1 1 1 2 4 4 3 5 8 10 10 10 9 13 9 11 8 10 12 14 12 9 12 12 13
4 5 5 5 5 6 6 7 7 6 6 5 5 4 4 3 3 3 2 1 2 3 4 3 5 9 10 8 10 11 11 14 12 16 11 9 10 10 9 11 16 12 14
Wind_Direction
130 120 111 106 100 98 96 101 110 104 104 75 116 103 96 80 54 78 50 55 57 52 38 55 39 19 22 26 25 19 9 24 284 290 321 324 339 335 330 332 337 340 330
144 142 129 117 111 104 98 85 79 81 95 95 74 103 84 82 61 65 77 62 55 50 37 47 42 18 30 27 16 16 2 342 342 301 310 343 318 315 318 342 344 355 341
131 141 134 130 132 131 124 117 97 105 96 106 118 95 91 84 88 77 76 78 79 67 53 51 39 32 23 15 4 8 359 350 339 311 307 321 307 330 347 346 344 339 331
126 125 112 110 113 114 105 117 113 113 108 105 90 82 78 77 77 80 91 82 74 69 49 55 54 53 28 20 23 12 0 352 344 325 325 335 327 340 348 328 335 330 320
113 105 102 103 107 113 115 106 104 96 81 80 86 82 80 77 71 59 71 79 76 75 63 56 79 59 31 28 11 356 341 329 351 348 332 327 323 342 343 327 320 322 324
103 102 106 110 109 108 102 104 101 103 112 103 94 93 86 71 71 68 69 81 76 75 65 47 68 63 40 14 2 353 348 339 327 310 305 316 315 326 328 329 326 335 338
86 101 103 105 106 108 111 97 99 117 121 107 103 101 86 79 66 74 72 78 82 67 65 72 59 55 42 0 346 341 339 339 339 328 326 331 321 319 326 330 328 325 318
88 95 89 106 102 98 96 112 105 142 99 105 105 93 87 87 79 74 69 82 90 82 62 62 55 46 12 352 351 329 329 333 358 5 335 320 316 327 329 328 323 311 313
84 87 90 105 118 114 116 123 113 107 106 95 99 109 103 88 73 62 68 62 70 72 66 79 72 47 3 1 358 358 339 1 357 347 343 340 343 345 345 354 346 343 328
107 102 99 86 107 112 111 119 120 101 99 106 101 97 111 85 76 61 76 82 86 69 60 66 33 20 7 1 5 359 3 350 348 345 348 353 346 352 10 14 345 338 325
139 107 97 100 104 107 102 98 98 103 102 108 104 100 99 95 73 70 72 60 74 127 82 55 38 6 2 4 20 13 357 360 357 355 350 340 353 3 352 352 347 334 328
124 105 110 100 97 97 110 109 107 108 123 129 122 122 127 109 113 91 79 74 52 42 50 46 16 1 4 13 13 5 16 22 13 350 335 353 349 342 342 340 336 330 316
123 128 127 96 109 125 122 114 120 117 152 146 153 128 86 96 169 123 75 51 34 2 49 16 3 2 14 22 7 18 28 20 358 330 357 344 332 329 324 327 326 325 317
121 110 113 134 125 101 129 138 117 143 160 150 106 110 137 152 184 96 72 42 33 36 28 18 1 10 19 29 26 21 16 12 355 358 346 327 320 329 332 335 331 327 317
142 148 153 157 163 154 126 132 127 77 95 110 127 137 147 174 179 87 67 62 54 3 39 22 2 12 1 13 10 7 5 2 10 355 322 320 333 333 330 335 324 328 325
146 158 167 135 107 103 100 65 58 88 113 109 144 161 132 101 92 80 72 57 35 11 46 47 2 21 21 5 356 344 340 349 342 333 322 335 331 328 328 329 333 328 319
169 169 153 146 152 149 144 144 138 63 150 174 137 107 125 129 126 123 95 74 75 62 88 10 59 27 351 347 328 327 310 305 323 319 322 326 326 332 334 328 321 313 311
165 165 165 168 156 145 150 145 149 170 161 174 149 160 140 138 134 113 95 93 50 25 114 118 259 313 311 333 321 302 301 314 311 299 308 310 324 320 316 306 306 311 317
169 156 152 157 162 164 161 164 159 161 174 158 122 145 123 134 142 122 101 119 150 174 176 184 207 238 295 299 284 290 289 292 295 311 305 311 302 292 298 300 308 316 314
167 164 166 161 157 155 154 153 151 157 149 155 146 160 120 73 90 97 108 125 147 188 183 162 291 297 273 272 294 304 317 323 312 306 295 277 269 263 294 305 308 307 305
159 157 159 143 160 165 166 172 166 160 161 154 157 153 162 128 140 139 154 161 156 154 182 196 288 292 283 280 307 323 306 295 291 273 267 275 278 296 295 291 292 294 294
155 153 159 167 152 162 166 160 162 157 150 138 128 166 144 113 126 137 135 138 174 170 194 181 290 267 258 268 281 284 280 274 270 254 269 286 286 288 289 285 286 284 284
149 148 152 140 149 148 152 153 149 143 137 135 140 135 119 131 130 142 157 180 165 289 311 310 271 289 284 273 246 236 265 274 270 272 290 288 286 282 277 275 277 279 276
145 153 161 161 156 159 156 150 139 133 135 137 137 142 139 142 148 150 157 169 83 310 295 281 271 277 289 284 269 255 249 264 269 269 262 274 276 277 270 268 271 271 271
151 159 162 163 158 159 144 135 132 132 134 137 133 130 131 136 130 134 146 159 207 258 279 281 268 273 275 275 274 274 270 279 267 260 258 253 257 263 265 262 266 274 272
151 150 143 138 147 142 143 141 141 137 133 132 131 129 132 134 147 160 186 209 262 284 299 288 280 277 278 276 280 282 280 286 287 275 269 258 260 265 260 259 267 267 274